Location: Maynard F. Jordan Observatory
(44.9000°N, 68.6700°W)
Time: 10:11:30
(UTC-04:00)

Cosmos 2297 Rocket - Visible Passes

Search period start: 27 May 2016 00:00
Search period end: 06 June 2016 00:00
Orbit: 839 x 844 km, 71.0° (Epoch: 26 May)

Date Brightness Start Highest point End Pass type
(mag) Time Alt. Az. Time Alt. Az. Time Alt. Az.
28 May 4.6 04:15:23 10° SE 04:19:09 18° E 04:22:55 10° ENE visible
29 May 4.6 04:00:31 10° SE 04:04:06 17° E 04:07:43 10° ENE visible
30 May 4.6 03:45:39 10° SE 03:49:04 17° E 03:52:30 10° ENE visible
31 May 4.6 03:30:48 10° SE 03:34:01 16° E 03:37:15 10° ENE visible
01 Jun 4.6 03:15:58 10° SE 03:18:59 15° E 03:22:00 10° ENE visible
02 Jun 4.6 03:01:11 10° SE 03:03:57 14° E 03:06:43 10° ENE visible
03 Jun 4.6 02:46:25 10° ESE 02:48:54 13° E 02:51:24 10° ENE visible
04 Jun 4.6 02:31:42 10° ESE 02:33:52 12° E 02:36:04 10° ENE visible
04 Jun 2.3 04:11:20 10° SSW 04:16:59 85° ESE 04:22:42 10° NNE visible
05 Jun 4.6 02:17:02 10° ESE 02:18:50 12° E 02:20:39 10° ENE visible
05 Jun 2.3 03:56:15 10° SSW 04:01:55 81° ESE 04:07:37 10° NNE visible
